Language selection

My Weather Profile Weather Topics  | 

Atlantic - Labrador: Past 24 Hour Conditions

 

Hopedale

09:00 PM ADT 18 June 2021
Disclaimer

This table is a summary of hourly weather conditions for the past 24 hours.
Please note that these observations might not always be representative of weather conditions over their associated marine area.

Date / Time
(ADT)
Wind(knots) Conditions Visibility(km) Pressure(kPa) Air tempC) Relative humidity(%) Dew pointC)
18 June 2021
21:00 6 N/A N/A 100.0 12 95 11
20:00 8 N/A N/A 100.0 12 94 11
19:00 9 N/A N/A 100.0 12 94 11
18:00 10 N/A N/A 100.0 12 93 11
17:00 12 N/A N/A 100.0 12 91 10
16:00 13 gust 18 N/A N/A 100.0 13 84 10
15:00 11 N/A N/A 100.0 13 79 10
14:00 8 N/A N/A 100.0 14 79 10
13:00 8 N/A N/A 100.0 12 80 9
12:00 7 N/A N/A 100.0 11 84 9
11:00 9 N/A N/A 100.0 10 85 7
10:00 6 N/A N/A 100.1 8 87 6
9:00 5 N/A N/A 100.2 8 90 6
8:00 6 N/A N/A 100.2 6 93 5
7:00 8 N/A N/A 100.2 6 96 5
6:00 4 N/A N/A 100.2 6 97 5
5:00 3 N/A N/A 100.2 5 97 5
4:00 5 N/A N/A 100.2 5 97 4
3:00 2 N/A N/A 100.2 5 98 4
2:00 9 N/A N/A 100.2 4 98 4
1:00 2 N/A N/A 100.3 4 98 4
0:00 3 N/A N/A 100.3 4 98 4
17 June 2021
23:00 7 gust 18 N/A N/A 100.4 4 98 4
22:00 6 N/A N/A 100.4 4 98 4
21:00 6 N/A N/A 100.4 4 98 4

Zoom-in to make a selection

Map of Atlantic - Labrador marine weather areas Kangiqsualujjuaq Airport Cape Kakkiviak Cape Kiglapait Cartwright Airport CFB Goose Bay Hopedale Mary's Harbour Nain Airport Makkovik Airport Saglek Tukialik Bay
Legend:
buoy Buoy
land station Land Station

Atlantic - Labrador Area

Another Region

What we are doing

Date modified: